DW7980 Weather Reports


Display with metric or nautical units.
time (UTC)temp
F
wind
direction
speed
MPH
gust
MPH
rain 1hr
in
rain 24hr
in
rain mn
in
humidity
%
barometer
mb
20260505081550 54 182 1.0 5.0 0.00 0.00 0.00 83 1014.5
20260505081038 54 215 1.0 5.0 0.00 0.00 0.00 84 1014.4
20260505080539 54 178 2.0 4.0 0.00 0.00 0.00 83 1014.4
20260505080048 54 0 0.0 3.0 0.00 0.00 0.00 84 1014.4
20260505075542 54 176 0.0 3.0 0.00 0.00 0.00 84 1014.4
20260505075039 54 214 0.0 3.0 0.00 0.00 0.00 84 1014.3
20260505074549 54 0 0.0 3.0 0.00 0.00 0.00 84 1014.3
20260505074038 54 0 1.0 3.0 0.00 0.00 0.00 83 1014.2
20260505073538 54 260 0.0 3.0 0.00 0.00 0.00 83 1014.1
20260505073048 54 178 0.0 3.0 0.00 0.00 0.00 83 1014.1
20260505072542 54 178 0.0 4.0 0.00 0.00 0.00 83 1014.1
20260505072039 54 178 0.0 4.0 0.00 0.00 0.00 82 1013.9
20260505071554 54 181 1.0 4.0 0.00 0.00 0.00 82 1013.8
20260505071038 55 0 0.0 3.0 0.00 0.00 0.00 82 1013.8
20260505070539 55 0 0.0 3.0 0.00 0.00 0.00 82 1013.6
20260505070051 55 0 0.0 6.0 0.00 0.00 0.00 82 1013.6
20260505065539 55 190 2.0 6.0 0.00 0.00 0.00 81 1013.6
20260505065038 55 180 1.0 6.0 0.00 0.00 0.00 81 1013.6
20260505064549 55 190 2.0 6.0 0.00 0.00 0.00 81 1013.4
20260505064038 56 0 1.0 6.0 0.00 0.00 0.00 81 1013.4
20260505063538 56 240 1.0 6.0 0.00 0.00 0.00 80 1013.4
20260505063052 56 211 2.0 7.0 0.00 0.00 0.00 80 1013.4
20260505062539 56 217 2.0 7.0 0.00 0.00 0.00 80 1013.4
20260505062039 56 180 1.0 7.0 0.00 0.00 0.00 80 1013.4
20260505061552 57 202 3.0 7.0 0.00 0.00 0.00 79 1013.3
20260505061038 57 222 1.0 5.0 0.00 0.00 0.00 80 1013.2
20260505060538 57 182 2.0 5.0 0.00 0.00 0.00 79 1013.3
20260505060056 58 184 1.0 4.0 0.00 0.00 0.00 80 1013.3
20260505055539 58 184 1.0 4.0 0.00 0.00 0.00 80 1013.3
20260505055038 58 0 1.0 3.0 0.00 0.00 0.00 80 1013.2
20260505054554 59 272 0.0 2.0 0.00 0.00 0.00 79 1013.2
20260505054038 59 272 0.0 2.0 0.00 0.00 0.00 79 1013.2
20260505053538 59 272 0.0 4.0 0.00 0.00 0.00 79 1013.1
20260505053105 60 0 0.0 4.0 0.00 0.00 0.00 78 1013.1
20260505052538 60 0 0.0 3.0 0.00 0.00 0.00 78 1013.0
20260505052039 60 0 0.0 5.0 0.00 0.00 0.00 78 1012.9
20260505051553 60 0 1.0 8.0 0.00 0.00 0.00 78 1012.9
20260505051039 60 225 1.0 8.0 0.00 0.00 0.00 78 1012.9
20260505050539 61 196 1.0 4.0 0.00 0.00 0.00 78 1012.9
20260505041553 63 173 1.0 3.0 0.00 0.00 0.00 77 1012.1
20260505041039 62 180 1.0 4.0 0.00 0.00 0.00 78 1012.0
20260505040539 62 0 1.0 4.0 0.00 0.00 0.00 79 1012.0
20260505040050 63 240 1.0 4.0 0.00 0.00 0.00 79 1011.9
20260505035539 63 0 0.0 3.0 0.00 0.00 0.00 79 1011.8
20260505035041 63 0 1.0 3.0 0.00 0.00 0.00 79 1011.7
20260505034550 63 175 1.0 3.0 0.00 0.00 0.00 79 1011.7
20260505034039 63 172 0.0 2.0 0.00 0.00 0.00 79 1011.5
20260505033540 64 172 0.0 2.0 0.00 0.00 0.00 78 1011.6
20260505033110 64 172 0.0 2.0 0.00 0.00 0.00 78 1011.4
20260505032537 64 172 0.0 2.0 0.00 0.00 0.00 77 1011.5
20260505032039 65 0 0.0 2.0 0.00 0.00 0.00 77 1011.4
20260505031552 65 172 0.0 2.0 0.00 0.00 0.00 76 1011.2
20260505031042 65 0 0.0 1.0 0.00 0.00 0.00 76 1011.2
20260505030539 65 0 0.0 2.0 0.00 0.00 0.00 76 1011.2
20260505030052 66 0 0.0 3.0 0.00 0.00 0.00 75 1011.2
20260505025538 66 172 0.0 3.0 0.00 0.00 0.00 75 1011.1
20260505025040 66 172 1.0 5.0 0.00 0.00 0.00 75 1011.1
20260505024600 66 172 1.0 5.0 0.00 0.00 0.00 74 1011.1
20260505024039 66 171 1.0 5.0 0.00 0.00 0.00 74 1011.1
20260505023538 66 168 1.0 5.0 0.00 0.00 0.00 74 1011.1
20260505023059 67 258 0.0 5.0 0.00 0.00 0.00 74 1011.1
20260505022539 67 258 1.0 5.0 0.00 0.00 0.00 73 1011.1
20260505022042 67 0 1.0 5.0 0.00 0.00 0.00 73 1011.0
20260505021557 67 206 1.0 5.0 0.00 0.00 0.00 73 1011.0
20260505021038 67 185 1.0 4.0 0.00 0.00 0.00 73 1011.1
20260505020538 67 221 1.0 4.0 0.00 0.00 0.00 72 1011.1
20260505020055 67 210 0.0 4.0 0.00 0.00 0.00 73 1011.1
20260505015538 67 227 0.0 4.0 0.00 0.00 0.00 73 1011.0
20260505015042 68 227 1.0 4.0 0.00 0.00 0.00 72 1011.1
20260505014549 68 163 1.0 3.0 0.00 0.00 0.00 72 1011.1
20260505014037 68 219 0.0 4.0 0.00 0.00 0.00 71 1011.2
20260505013539 68 219 0.0 5.0 0.00 0.00 0.00 71 1011.2
20260505013052 68 219 1.0 6.0 0.00 0.00 0.00 71 1011.2
20260505012540 68 199 2.0 6.0 0.00 0.00 0.00 70 1011.2
20260505012038 68 219 2.0 6.0 0.00 0.00 0.00 70 1011.2
20260505011552 68 168 1.0 4.0 0.00 0.00 0.00 71 1011.3
20260505011041 68 238 2.0 8.0 0.00 0.00 0.00 70 1011.3
20260505010540 68 221 2.0 8.0 0.00 0.00 0.00 69 1011.4
20260505010049 68 196 2.0 7.0 0.00 0.00 0.00 69 1011.4
20260505005540 68 242 3.0 7.0 0.00 0.00 0.00 69 1011.5
20260505005039 69 227 2.0 7.0 0.00 0.00 0.00 69 1011.5
20260505004550 69 196 2.0 7.0 0.00 0.00 0.00 68 1011.5
20260505004040 69 171 2.0 6.0 0.00 0.00 0.00 68 1011.5
20260505003538 69 170 2.0 9.0 0.00 0.00 0.00 68 1011.5
20260505003051 69 148 1.0 10.0 0.00 0.00 0.00 67 1011.5
20260505002539 69 171 2.0 10.0 0.00 0.00 0.00 67 1011.6
20260505002039 69 188 2.0 7.0 0.00 0.00 0.00 67 1011.6
20260505001550 69 230 1.0 7.0 0.00 0.00 0.00 68 1011.5
20260505001038 69 152 2.0 9.0 0.00 0.00 0.00 68 1011.5
20260505000542 69 182 3.0 9.0 0.00 0.00 0.00 68 1011.6
20260505000051 69 175 2.0 9.0 0.00 0.00 0.00 68 1011.5
20260504235541 69 167 4.0 9.0 0.00 0.00 0.00 67 1011.5
20260504235044 69 161 1.0 5.0 0.00 0.00 0.00 68 1011.6
20260504234613 69 86 1.0 7.0 0.00 0.00 0.00 68 1011.6
20260504234038 69 243 2.0 7.0 0.00 0.00 0.00 67 1011.7
20260504233538 69 102 1.0 5.0 0.00 0.00 0.00 68 1011.7
20260504233051 69 127 2.0 6.0 0.00 0.00 0.00 67 1011.8
20260504232539 69 224 2.0 6.0 0.00 0.00 0.00 68 1011.9
20260504232038 69 169 0.0 7.0 0.00 0.00 0.00 68 1011.9
20260504231554 69 164 2.0 7.0 0.00 0.00 0.00 67 1012.0
20260504231038 69 167 2.0 8.0 0.00 0.00 0.00 67 1012.0
20260504230538 69 191 3.0 8.0 0.00 0.00 0.00 66 1012.0
20260504230046 69 196 0.0 5.0 0.00 0.00 0.00 68 1012.1
20260504225538 69 169 2.0 5.0 0.00 0.00 0.00 66 1012.2
20260504225040 69 43 2.0 9.0 0.00 0.00 0.00 67 1012.3
20260504224600 69 189 1.0 9.0 0.00 0.00 0.00 69 1012.2
20260504224038 69 188 2.0 9.0 0.00 0.00 0.00 66 1012.2
20260504223538 68 183 2.0 8.0 0.00 0.00 0.00 67 1012.1
20260504223049 68 187 2.0 8.0 0.00 0.00 0.00 67 1012.2
20260504222539 68 161 2.0 10.0 0.00 0.00 0.00 67 1012.3
20260504222037 68 223 3.0 10.0 0.00 0.00 0.00 67 1012.3
20260504221600 69 159 2.0 8.0 0.00 0.00 0.00 65 1012.3
20260504221039 69 220 2.0 6.0 0.00 0.00 0.00 66 1012.4
20260504220537 69 200 2.0 6.0 0.00 0.00 0.00 66 1012.4
20260504220055 68 89 1.0 5.0 0.00 0.00 0.00 69 1012.4
20260504215538 68 167 1.0 6.0 0.00 0.00 0.00 67 1012.5
20260504215039 67 211 2.0 6.0 0.00 0.00 0.00 68 1012.7
20260504214556 67 158 0.0 7.0 0.00 0.00 0.00 69 1012.8
20260504214040 67 178 2.0 7.0 0.00 0.00 0.00 70 1013.0
20260504213539 67 203 2.0 6.0 0.00 0.00 0.00 70 1012.9
20260504213102 66 173 2.0 6.0 0.00 0.00 0.00 69 1012.9
20260504212539 66 135 1.0 7.0 0.00 0.00 0.00 70 1012.9
20260504212041 66 173 2.0 7.0 0.00 0.00 0.00 70 1012.9
20260504211553 66 194 3.0 7.0 0.00 0.00 0.00 70 1013.0
20260504211039 66 184 2.0 7.0 0.00 0.00 0.00 73 1013.0
20260504210538 66 204 3.0 7.0 0.00 0.00 0.00 70 1013.0
20260504210104 65 229 2.0 8.0 0.00 0.00 0.00 71 1013.1
20260504205539 65 227 4.0 8.0 0.00 0.00 0.00 70 1013.2
20260504205041 65 0 2.0 8.0 0.00 0.00 0.00 71 1013.3
20260504204628 65 213 3.0 9.0 0.00 0.00 0.00 72 1013.4
20260504204040 64 190 2.0 9.0 0.00 0.00 0.00 72 1013.6
20260504203542 64 277 2.0 10.0 0.00 0.00 0.00 72 1013.6
20260504203051 64 44 3.0 10.0 0.00 0.00 0.00 74 1013.7
20260504202538 63 230 2.0 9.0 0.00 0.00 0.00 74 1013.7
20260504202040 63 169 2.0 9.0 0.00 0.00 0.00 74 1013.8
20260504201548 63 147 3.0 8.0 0.00 0.00 0.00 76 1013.8
20260504201039 63 165 1.0 8.0 0.00 0.00 0.00 73 1013.9
20260504200538 63 136 1.0 6.0 0.00 0.00 0.00 74 1013.8
20260504200055 63 136 1.0 8.0 0.00 0.00 0.00 75 1014.0
20260504195538 62 177 2.0 8.0 0.00 0.00 0.00 76 1013.9
20260504195041 62 179 2.0 6.0 0.00 0.00 0.00 76 1014.0
20260504194551 62 189 2.0 5.0 0.00 0.00 0.00 75 1014.1
20260504194038 61 295 1.0 6.0 0.00 0.00 0.00 78 1014.1
20260504193539 61 183 2.0 9.0 0.00 0.00 0.00 77 1014.1
20260504193049 61 166 3.0 9.0 0.00 0.00 0.00 76 1014.1
20260504192538 61 193 3.0 9.0 0.00 0.00 0.00 77 1014.1
20260504192038 61 155 2.0 7.0 0.00 0.00 0.00 76 1014.2
20260504191552 60 171 1.0 6.0 0.00 0.00 0.00 77 1014.2
20260504191040 60 194 1.0 8.0 0.00 0.00 0.00 78 1014.2
20260504190538 60 271 2.0 9.0 0.00 0.00 0.00 79 1014.2
20260504190059 59 215 2.0 9.0 0.00 0.00 0.00 78 1014.2
20260504185540 59 167 3.0 11.0 0.00 0.00 0.00 80 1014.2
20260504185039 59 192 3.0 11.0 0.00 0.00 0.00 79 1014.3
20260504184600 59 192 2.0 9.0 0.00 0.00 0.00 80 1014.4
20260504184039 59 190 2.0 6.0 0.00 0.00 0.00 79 1014.3
20260504183541 59 148 2.0 6.0 0.00 0.00 0.00 79 1014.2
20260504183057 59 202 2.0 6.0 0.00 0.00 0.00 80 1014.4
20260504182541 59 0 2.0 6.0 0.00 0.00 0.00 79 1014.4
20260504182040 58 207 1.0 7.0 0.00 0.00 0.00 80 1014.3
20260504181549 58 231 2.0 9.0 0.00 0.00 0.00 81 1014.3
20260504181041 58 261 2.0 10.0 0.00 0.00 0.00 81 1014.3
20260504180540 58 195 3.0 10.0 0.00 0.00 0.00 80 1014.4
20260504180054 58 208 2.0 5.0 0.00 0.00 0.00 80 1014.4
20260504175538 58 101 1.0 4.0 0.00 0.00 0.00 81 1014.2
20260504175042 57 119 1.0 8.0 0.00 0.00 0.00 81 1014.2
20260504174551 57 171 1.0 8.0 0.00 0.00 0.00 82 1014.2
20260504174041 57 222 2.0 9.0 0.00 0.00 0.00 82 1014.2
20260504173538 56 171 2.0 9.0 0.00 0.00 0.00 82 1014.2
20260504173048 56 176 4.0 9.0 0.00 0.00 0.00 82 1014.1
20260504172537 56 161 3.0 9.0 0.00 0.00 0.00 82 1014.2
20260504172039 56 204 3.0 9.0 0.00 0.00 0.00 82 1014.2
20260504171550 56 219 3.0 9.0 0.00 0.00 0.00 82 1014.2
20260504171039 56 178 2.0 8.0 0.00 0.00 0.00 81 1014.2
20260504170539 56 197 3.0 8.0 0.00 0.00 0.00 82 1014.2
20260504151040 54 217 2.0 11.0 0.00 0.00 0.00 84 1013.9
20260504150540 54 169 2.0 11.0 0.00 0.00 0.00 84 1013.8
20260504141038 53 224 1.0 8.0 0.00 0.00 0.00 85 1013.3
20260504140539 53 184 2.0 8.0 0.00 0.00 0.00 85 1013.1
20260504130541 53 174 1.0 6.0 0.00 0.00 0.00 84 1012.0
20260504110538 57 161 3.0 12.0 0.00 0.00 0.00 78 1010.5
20260504100538 60 182 2.0 7.0 0.00 0.00 0.00 74 1010.0